Location: *
(46.1333°S, 161.2167°W)
Time: 04:01:20
(UTC+00:00)

Timation 1 Rocket - Pass Details

Date: 15 July 2020
Orbit: 900 x 907 km, 70.0° (Epoch: 10 August)

Event Time Altitude Azimuth Distance (km) Brightness Sun altitude
Exits shadow 16:08:50 37° 222° (SW) 1,401 4.9 -22.4°
Maximum altitude 16:11:18 70° 294° (WNW) 976 4.3 -22.0°
Drops below altitude 10° 16:17:16 10° 16° (NNE) 2,592 7.0 -20.9°
Sets 16:19:45 0° 18° (NNE) 3,524 7.8 -20.5°
